TeikyoSat 4
1 49396U 21102B   25300.56657611  .00003215  00000-0  21069-3 0  9996
2 49396  97.3964 333.8933 0012844  21.0631 339.1124 15.08328857217645
Z-Sat
1 49399U 21102E   25300.84100779  .00006042  00000-0  31871-3 0  9991
2 49399  97.3649 338.1680 0016879 342.8880  17.1782 15.15792628218213
KOSEN 1
1 49402U 21102H   25300.58227227  .00009273  00000-0  40175-3 0  9991
2 49402  97.3541 342.4509 0013654 312.8268  47.1820 15.22526583218570
HO-113
1 50466U 21131B   25300.82417021  .00000915  00000-0  29835-3 0  9999
2 50466  98.5072  29.4768 0005208  81.0131 279.1647 14.41016211201649
SNUGLITE 2
1 52899U 22065F   25300.86502578  .00001965  00000-0  38710-3 0  9992
2 52899  98.1894  81.6738 0008152  40.4601 319.7206 14.63640687177006
UmKA 1 (RS40S)
1 57172U 23091G   25300.85448141  .00008427  00000-0  42581-3 0  9996
2 57172  97.5405 355.5313 0013239 202.9350 157.1294 15.17248071128734
CubeBel-2 (EU11S)
1 57175U 23091K   25300.80132667  .00012795  00000-0  55536-3 0  9994
2 57175  97.5402 357.5807 0010741 206.1242 153.9454 15.22416150128862
ENSO
1 58470U 23185J   25298.09129247  .00524137  11009-3  15607-2 0  9990
2 58470  97.3514  19.7505 0006850 270.3016  89.7473 15.92395026106568
SONATE-2
1 59112U 24043Q   25300.36089363  .00026914  00000-0  63533-3 0  9994
2 59112  97.5309  75.0107 0009352 336.4292  23.6524 15.41803191 91826
MO-122
1 60209U 24125G   25300.52468249  .00029030  00000-0  66648-3 0  9998
2 60209  97.2591 150.9768 0016333 359.3190   0.8032 15.42524264 73473
GRBBeta
1 60237U 24128C   25300.42444125  .00005075  00000-0  36693-3 0  9998
2 60237  61.9910 311.4973 0057049  86.6778 274.0838 15.04081652 71227
Curium One
1 60242U 24128H   25300.71993647  .00009551  00000-0  61387-3 0  9995
2 60242  61.9805 306.3632 0056980  83.3188 277.4385 15.07660362 71344
ROBUSTA-3A
1 60243U 24128J   25300.37292252  .00009064  00000-0  59329-3 0  9994
2 60243  61.9880 308.9229 0056652  80.7567 279.9927 15.07057018 71275
CatSat
1 60246U 24125J   25300.81676917  .00032019  00000-0  88395-3 0  9998
2 60246  97.2403 148.8162 0035881 315.3574  44.4782 15.36349157 71469
HYPERVIEW-1G (RS66S)
1 61772U 24199AP  25300.83564691  .00036875  00000-0  82871-3 0  9998
2 61772  97.3270 169.8441 0013510  53.4068 306.8420 15.43159703 98527
AO-123
1 61781U 24199AY  25300.86474955  .00010894  00000-0  36835-3 0  9996
2 61781  97.3300 166.8469 0016878  62.5958 297.6998 15.30666357 98326
ZIMSAT 2
1 61783U 24199BA  25300.86218000  .00113924  00000-0  15511-2 0  9990
2 61783  97.3195 172.1421 0011682  50.3028 309.9255 15.57085925101838
HADES-R (SO-124)
1 62690U 25009CK  25300.19161099  .00088348  00000-0  18656-2 0  9994
2 62690  97.3954  21.5432 0002698 286.8353  73.2599 15.44865257 43569
HYDRA-T
1 62692U 25009CM  25300.20426629  .00092843  00000-0  19109-2 0  9990
2 62692  97.3952  21.6788 0002629 278.6923  81.4029 15.45601823 43578
JINJUSat 1B
1 63210U 25052A   25300.21736016  .00016437  00000-0  66880-3 0  9994
2 63210  97.4212 192.7320 0003814 154.7861 205.3563 15.24585541 34495
NUSHSAT 1
1 63211U 25052B   25300.43649200  .00019531  00000-0  77656-3 0  9998
2 63211  97.4200 193.0179 0003591 156.3368 203.8036 15.25324248 34530
TEVEL2-4
1 63213U 25052D   25300.68184853  .00017727  00000-0  71620-3 0  9995
2 63213  97.4117 192.9040 0002222 159.4135 200.7193 15.24811127 34569
TEVEL2-5
1 63214U 25052E   25300.42291723  .00017632  00000-0  71372-3 0  9992
2 63214  97.4115 192.6403 0002230 160.9584 199.1738 15.24749760 34527
TEVEL2-6
1 63215U 25052F   25300.16627140  .00017616  00000-0  71421-3 0  9997
2 63215  97.4120 192.3767 0002181 161.9238 198.2078 15.24695643 34488
TEVEL2-1
1 63217U 25052H   25300.46224492  .00017788  00000-0  72710-3 0  9997
2 63217  97.4094 192.5179 0001660 184.5843 175.5380 15.24419057 34525
TEVEL2-3
1 63218U 25052J   25300.65890593  .00018274  00000-0  74636-3 0  9990
2 63218  97.4095 192.7159 0001693 184.1141 176.0083 15.24441336 34554
TEVEL2-2
1 63219U 25052K   25300.46302414  .00018122  00000-0  74071-3 0  9995
2 63219  97.4094 192.5187 0001652 184.2987 175.8237 15.24418301 34528
TEVEL2-9
1 63237U 25052AD  25300.64521222  .00017272  00000-0  73516-3 0  9993
2 63237  97.4154 192.4666 0005098 237.6898 122.3845 15.23047285 34528
TEVEL2-7
1 63238U 25052AE  25300.45796580  .00017087  00000-0  73003-3 0  9999
2 63238  97.4157 192.2640 0005204 239.2091 120.8634 15.22921721 34494
TEVEL2-8
1 63239U 25052AF  25300.65989856  .00017310  00000-0  73998-3 0  9994
2 63239  97.4156 192.4502 0005164 238.6754 121.3978 15.22900412 34522
HYDRA-W
1 63490U 25052BL  25300.42718799  .00052426  00000-0  15888-2 0  9994
2 63490  97.4090 193.8104 0005776 222.0488 138.0312 15.33950940 34600
HADES-ICM (SO-125)
1 63492U 25052BN  25300.24491821  .00048998  00000-0  15438-2 0  9990
2 63492  97.4097 193.4627 0006148 232.9956 127.0724 15.32727843 34562
Dragonfly
1 65729U 98067XH  25300.62312022  .00086356  00000-0  10990-2 0  9996
2 65729  51.6317   9.3422 0002795  49.4848 310.6388 15.58609431  5943
RSP-03
1 65732U 98067XL  25300.56845447  .00073724  00000-0  97195-3 0  9993
2 65732  51.6322   9.7273 0005077  22.9591 337.1627 15.57730144  5943
GHS-01
1 65733U 98067XM  25300.48868683  .00098585  00000-0  12256-2 0  9998
2 65733  51.6329   9.9460 0003179  44.4958 315.6289 15.59169468  5939
BOTAN
1 65942U 98067XP  25300.20651253  .00068238  00000-0  10633-2 0  9992
2 65942  51.6340  12.5584 0004341 338.3786  21.7021 15.53223057  2617
